Tracking 25701 objects as of 4-Jul-2022
HD Live streaming from Space Station
objects crossing your sky now

COSMOS 970 DEB

Track COSMOS 970 DEB now!
10-day predictions


NORAD ID: 10576
Int'l Code: 1977-121T
Perigee: 920.1 km
Apogee: 1,121.6 km
Inclination: 65.8 °
Period: 105.4 minutes
Semi major axis: 7391 km
RCS: 0.1037 m2 (medium)
Launch date: December 21, 1977
Source: Commonwealth of Independent States (former USSR) (CIS)
Launch site: TYURATAM MISSILE AND SPACE COMPLEX (TTMTR)

Note: This is SATELLITE DEBRIS
aabbcc
Your satellite tracking list
Your tracking list is empty




NASA's NSSDC Master Catalog

Two Line Element Set (TLE):
1 10576U 77121T   22184.32595206  .00000011  00000-0  10192-3 0  9994
2 10576  65.8383 106.8354 0136248 168.2221 278.6817 13.66070610217477
Source of the keplerian elements: AFSPC